Change the Weather History Date:

Monday, October 20, 2014

  Actual Average Record
Temperature  
Mean Temperature 71 °F 62 °F  
Max Temperature 85 °F 75 °F 95 °F (2007)
Min Temperature 57 °F 49 °F 29 °F (1976)
Degree Days  
Heating Degree Days 0 5  
Month to date heating degree days 27 65  
Since 1 July heating degree days 37 82  
Cooling Degree Days 6 2  
Month to date cooling degree days 85 63  
Year to date cooling degree days 2263 2187  
Growing Degree Days 20 (Base 50)    
Moisture  
Dew Point 56 °F    
Average Humidity 64    
Maximum Humidity 93    
Minimum Humidity 34    
Precipitation  
Precipitation 0.00 in 0.08 in 5.32 in (1983)
Month to date precipitation 0.28 1.52  
Year to date precipitation 17.52 21.03  
Snow  
Snow 0.00 in 0.10 in - ()
Month to date snowfall 0.0 0.1  
Since 1 July snowfall 0.0 0.1  
Since 1 September snowfall 0.0 0.1  
Snow Depth 0.00 in    
Sea Level Pressure  
Sea Level Pressure 30.01 in    
Wind  
Wind Speed 7 mph (South)    
Max Wind Speed 10 mph    
Max Gust Speed 14 mph    
Visibility 9 miles    
Events      
T = Trace of Precipitation, MM = Missing Value Source: NWS Daily Summary

Daily Weather History Graph

Daily Weather History Graph

Search for Another Location

Airport or City:

Trip Planner

Search our weather history database for the weather conditions in past years. The results will help you decide how hot, cold, wet, or windy it might be!

Date:

Astronomy

Oct. 20, 2014 Rise Set
Actual Time 7:50 AM CDT 7:00 PM CDT
Civil Twilight 7:25 AM CDT 7:25 PM CDT
Nautical Twilight 6:55 AM CDT 7:55 PM CDT
Astronomical Twilight 6:26 AM CDT 8:24 PM CDT
Moon 4:48 AM CDT (10/20) 5:17 PM CDT (10/20)
Length of Visible Light 12h 00m
Length of Day
11h 09m
Waning Crescent, 10% of the Moon is Illuminated
Oct 20
Waning Crescent
Oct 23
New
Oct 30
First Quarter
Nov 6
Full
Nov 14
Last Quarter

Hourly Weather History & Observations

Time (CDT) Temp. Heat Index Dew Point Humidity Pressure Visibility Wind Dir Wind Speed Gust Speed Precip Events Conditions
12:53 AM 63.0 °F - 57.9 °F 84% 30.00 in 10.0 mi SSE 8.1 mph - N/A   Clear
1:53 AM 62.1 °F - 57.0 °F 84% 30.00 in 10.0 mi SSE 9.2 mph - N/A   Clear
2:53 AM 60.1 °F - 57.0 °F 90% 30.01 in 10.0 mi South 8.1 mph - N/A   Clear
3:53 AM 59.0 °F - 55.9 °F 90% 30.00 in 9.0 mi South 4.6 mph - N/A   Clear
4:53 AM 59.0 °F - 55.9 °F 90% 30.00 in 8.0 mi South 8.1 mph - N/A   Scattered Clouds
5:53 AM 59.0 °F - 55.9 °F 90% 30.00 in 9.0 mi South 6.9 mph - N/A   Clear
6:53 AM 57.0 °F - 55.0 °F 93% 30.01 in 7.0 mi South 6.9 mph - N/A   Clear
7:53 AM 57.0 °F - 54.0 °F 89% 30.03 in 6.0 mi SSW 3.5 mph - N/A   Clear
8:53 AM 60.1 °F - 57.0 °F 90% 30.04 in 7.0 mi SW 4.6 mph - N/A   Clear
9:53 AM 66.2 °F - 59.0 °F 78% 30.10 in 10.0 mi WSW 6.9 mph - N/A   Clear
10:53 AM 72.0 °F - 59.0 °F 64% 30.05 in 10.0 mi WSW 6.9 mph - N/A   Mostly Cloudy
11:53 AM 75.2 °F - 59.0 °F 57% 30.09 in 10.0 mi SSW 9.2 mph - N/A   Clear
12:53 PM 80.1 °F 80.6 °F 57.9 °F 47% 30.01 in 10.0 mi WNW 6.9 mph - N/A   Clear
1:53 PM 81.0 °F 81.1 °F 57.9 °F 45% 29.99 in 10.0 mi West 4.6 mph - N/A   Clear
2:53 PM 84.9 °F 83.7 °F 55.9 °F 37% 29.96 in 10.0 mi SSW 5.8 mph - N/A   Scattered Clouds
3:53 PM 84.0 °F 82.9 °F 55.0 °F 37% 29.95 in 10.0 mi Variable 4.6 mph - N/A   Clear
4:53 PM 84.0 °F 82.5 °F 53.1 °F 34% 29.94 in 10.0 mi South 4.6 mph - N/A   Clear
5:53 PM 82.9 °F 81.8 °F 53.1 °F 36% 29.95 in 10.0 mi SSE 6.9 mph - N/A   Clear
6:53 PM 77.0 °F - 54.0 °F 45% 29.96 in 10.0 mi South 6.9 mph - N/A   Clear
7:53 PM 73.0 °F - 54.0 °F 51% 29.99 in 10.0 mi SE 6.9 mph - N/A   Clear
8:53 PM 70.0 °F - 54.0 °F 57% 30.00 in 10.0 mi South 8.1 mph - N/A   Clear
9:53 PM 66.9 °F - 54.0 °F 63% 30.01 in 10.0 mi SSE 6.9 mph - N/A   Clear
10:53 PM 64.0 °F - 54.0 °F 70% 30.02 in 10.0 mi South 6.9 mph - N/A   Clear
11:53 PM 64.0 °F - 54.0 °F 70% 30.01 in 10.0 mi South 8.1 mph - N/A   Clear